Time,TemperatureF,DewpointF,PressureIn,WindDirection,WindDirectionDegrees,WindSpeedMPH,WindSpeedGustMPH,Humidity,HourlyPrecipIn,Conditions,Clouds,dailyrainin,SoftwareType,DateUTC
2013-05-23 00:03:00,67.0,66.0,29.91,SSE,167,2.0,4.0,97,0.00,,,0.24,,2013-05-23 04:03:00,
2013-05-23 00:12:00,67.0,66.0,29.91,SSE,167,2.0,4.0,97,0.00,,,0.24,,2013-05-23 04:12:00,
2013-05-23 00:22:00,67.0,66.0,29.91,ESE,107,1.0,7.0,97,0.00,,,0.24,,2013-05-23 04:22:00,
2013-05-23 00:33:00,67.0,66.0,29.91,SSW,195,1.0,5.0,97,0.00,,,0.24,,2013-05-23 04:33:00,
2013-05-23 00:43:00,67.0,66.0,29.91,SSW,195,1.0,5.0,97,0.00,,,0.24,,2013-05-23 04:43:00,
2013-05-23 00:52:00,67.0,66.0,29.92,ESE,115,1.0,2.0,97,0.00,,,0.24,,2013-05-23 04:52:00,
2013-05-23 01:02:00,67.0,66.0,29.91,SSW,204,1.0,4.0,97,0.00,,,0.24,,2013-05-23 05:02:00,
2013-05-23 01:11:00,67.0,66.0,29.91,SSW,204,1.0,4.0,97,0.00,,,0.24,,2013-05-23 05:11:00,
2013-05-23 01:22:00,67.0,66.0,29.92,South,187,1.0,4.0,97,0.00,,,0.24,,2013-05-23 05:22:00,
2013-05-23 01:32:00,67.0,66.0,29.91,ESE,123,0.0,4.0,97,0.00,,,0.24,,2013-05-23 05:32:00,
2013-05-23 01:42:00,66.0,65.0,29.91,SE,140,1.0,4.0,97,0.00,,,0.24,,2013-05-23 05:42:00,
2013-05-23 01:52:00,66.0,65.0,29.91,SE,140,1.0,4.0,97,0.00,,,0.24,,2013-05-23 05:52:00,
2013-05-23 02:02:00,66.0,65.0,29.91,SE,139,1.0,3.0,97,0.00,,,0.24,,2013-05-23 06:02:00,
2013-05-23 02:12:00,66.0,65.0,29.91,SE,139,1.0,3.0,97,0.00,,,0.24,,2013-05-23 06:12:00,
2013-05-23 02:21:00,66.0,65.0,29.90,SSW,207,0.0,5.0,97,0.00,,,0.24,,2013-05-23 06:21:00,
2013-05-23 02:32:00,66.0,65.0,29.90,SSW,195,1.0,4.0,97,0.00,,,0.24,,2013-05-23 06:32:00,
2013-05-23 02:42:00,66.0,65.0,29.90,SSW,195,1.0,4.0,97,0.00,,,0.24,,2013-05-23 06:42:00,
2013-05-23 02:52:00,66.0,65.0,29.89,SE,137,1.0,4.0,97,0.00,,,0.24,,2013-05-23 06:52:00,
2013-05-23 03:02:00,66.0,65.0,29.88,SSE,165,2.0,3.0,98,0.00,,,0.24,,2013-05-23 07:02:00,
2013-05-23 03:11:00,66.0,65.0,29.88,SSE,165,2.0,3.0,98,0.00,,,0.24,,2013-05-23 07:11:00,
2013-05-23 03:22:00,65.0,64.0,29.88,SE,142,4.0,7.0,98,0.00,,,0.24,,2013-05-23 07:22:00,
2013-05-23 03:32:00,65.0,64.0,29.88,SSW,193,3.0,6.0,98,0.00,,,0.24,,2013-05-23 07:32:00,
2013-05-23 03:42:00,65.0,64.0,29.88,SSW,193,3.0,6.0,98,0.00,,,0.24,,2013-05-23 07:42:00,
2013-05-23 03:59:00,65.0,64.0,29.88,SE,143,1.0,3.0,98,0.00,,,0.24,,2013-05-23 07:59:00,
2013-05-23 04:11:00,65.0,64.0,29.89,SSE,152,0.0,2.0,98,0.00,,,0.24,,2013-05-23 08:11:00,
2013-05-23 04:22:00,65.0,64.0,29.89,SE,133,2.0,8.0,98,0.00,,,0.23,,2013-05-23 08:22:00,
2013-05-23 04:32:00,65.0,64.0,29.90,SW,218,2.0,9.0,98,0.00,,,0.23,,2013-05-23 08:32:00,
2013-05-23 04:42:00,65.0,64.0,29.90,SW,218,2.0,9.0,98,0.00,,,0.23,,2013-05-23 08:42:00,
2013-05-23 04:51:00,66.0,65.0,29.89,SE,145,2.0,10.0,98,0.00,,,0.23,,2013-05-23 08:51:00,
2013-05-23 05:02:00,65.0,64.0,29.90,South,184,1.0,5.0,98,0.00,,,0.23,,2013-05-23 09:02:00,
2013-05-23 05:11:00,65.0,64.0,29.90,South,184,1.0,5.0,98,0.00,,,0.23,,2013-05-23 09:11:00,
2013-05-23 05:22:00,65.0,64.0,29.90,SE,139,3.0,6.0,98,0.00,,,0.00,,2013-05-23 09:22:00,
2013-05-23 05:33:00,65.0,65.0,29.90,South,191,0.0,4.0,99,0.00,,,0.00,,2013-05-23 09:33:00,
2013-05-23 05:42:00,65.0,65.0,29.90,South,191,0.0,4.0,99,0.00,,,0.00,,2013-05-23 09:42:00,
2013-05-23 05:53:00,65.0,65.0,29.90,SW,229,3.0,7.0,99,0.00,,,0.00,,2013-05-23 09:53:00,
2013-05-23 06:03:00,65.0,65.0,29.89,West,271,1.0,5.0,99,0.00,,,0.00,,2013-05-23 10:03:00,
2013-05-23 06:13:00,65.0,65.0,29.89,West,271,1.0,5.0,99,0.00,,,0.00,,2013-05-23 10:13:00,
2013-05-23 06:22:00,65.0,65.0,29.91,SE,125,2.0,6.0,99,0.00,,,0.00,,2013-05-23 10:22:00,
2013-05-23 06:32:00,65.0,65.0,29.91,SSE,152,2.0,5.0,99,0.00,,,0.00,,2013-05-23 10:32:00,
2013-05-23 06:42:00,65.0,65.0,29.91,SSE,152,2.0,5.0,99,0.00,,,0.00,,2013-05-23 10:42:00,
2013-05-23 06:52:00,65.0,65.0,29.91,SSE,149,0.0,4.0,99,0.00,,,0.00,,2013-05-23 10:52:00,
2013-05-23 07:02:00,65.0,65.0,29.91,SW,215,2.0,8.0,99,0.00,,,0.00,,2013-05-23 11:02:00,
2013-05-23 07:11:00,65.0,65.0,29.91,SW,215,2.0,8.0,99,0.00,,,0.00,,2013-05-23 11:11:00,
2013-05-23 07:22:00,65.0,65.0,29.92,SE,136,1.0,4.0,99,0.00,,,0.00,,2013-05-23 11:22:00,
2013-05-23 07:32:00,65.0,65.0,29.93,WNW,287,1.0,3.0,99,0.00,,,0.00,,2013-05-23 11:32:00,
2013-05-23 07:42:00,65.0,65.0,29.93,WNW,287,1.0,3.0,99,0.00,,,0.00,,2013-05-23 11:42:00,
2013-05-23 07:52:00,65.0,65.0,29.93,SE,139,0.0,2.0,99,0.00,,,0.00,,2013-05-23 11:52:00,
2013-05-23 08:01:00,65.0,65.0,29.93,SE,136,1.0,4.0,99,0.00,,,0.00,,2013-05-23 12:01:00,
2013-05-23 08:12:00,65.0,65.0,29.93,SE,136,1.0,4.0,99,0.00,,,0.00,,2013-05-23 12:12:00,
2013-05-23 08:21:00,65.0,65.0,29.93,SE,140,0.0,2.0,99,0.00,,,0.00,,2013-05-23 12:21:00,
2013-05-23 08:32:00,65.0,65.0,29.93,SSE,148,1.0,4.0,99,0.00,,,0.00,,2013-05-23 12:32:00,
2013-05-23 08:42:00,65.0,65.0,29.93,SSE,148,1.0,4.0,99,0.00,,,0.00,,2013-05-23 12:42:00,
2013-05-23 08:52:00,65.0,65.0,29.93,SE,126,0.0,4.0,99,0.00,,,0.00,,2013-05-23 12:52:00,
2013-05-23 09:02:00,65.0,65.0,29.93,SSE,152,0.0,5.0,99,0.00,,,0.00,,2013-05-23 13:02:00,
2013-05-23 09:11:00,65.0,65.0,29.93,SSE,152,0.0,5.0,99,0.00,,,0.00,,2013-05-23 13:11:00,
2013-05-23 09:22:00,66.0,66.0,29.92,SE,146,1.0,3.0,99,0.00,,,0.00,,2013-05-23 13:22:00,
2013-05-23 09:32:00,66.0,66.0,29.92,SSW,193,2.0,3.0,99,0.00,,,0.00,,2013-05-23 13:32:00,
2013-05-23 09:42:00,66.0,66.0,29.92,SSW,193,2.0,3.0,99,0.00,,,0.00,,2013-05-23 13:42:00,
2013-05-23 09:52:00,66.0,66.0,29.92,SSW,200,3.0,6.0,99,0.00,,,0.00,,2013-05-23 13:52:00,
2013-05-23 10:02:00,67.0,67.0,29.93,SW,218,1.0,3.0,99,0.00,,,0.00,,2013-05-23 14:02:00,
2013-05-23 10:11:00,67.0,67.0,29.93,SW,218,1.0,3.0,99,0.00,,,0.00,,2013-05-23 14:11:00,
2013-05-23 10:21:00,67.0,67.0,29.93,ESE,120,0.0,3.0,99,0.00,,,0.00,,2013-05-23 14:21:00,
2013-05-23 10:32:00,67.0,67.0,29.93,SSE,158,3.0,6.0,99,0.00,,,0.00,,2013-05-23 14:32:00,
2013-05-23 10:42:00,67.0,67.0,29.93,SSE,158,3.0,6.0,99,0.00,,,0.00,,2013-05-23 14:42:00,
2013-05-23 10:52:00,68.0,67.0,29.93,SSE,158,0.0,3.0,98,0.00,,,0.00,,2013-05-23 14:52:00,
2013-05-23 11:01:00,68.0,67.0,29.93,SSW,212,1.0,8.0,98,0.00,,,0.00,,2013-05-23 15:01:00,
2013-05-23 11:11:00,68.0,67.0,29.93,SSW,212,1.0,8.0,98,0.00,,,0.00,,2013-05-23 15:11:00,
2013-05-23 11:22:00,68.0,67.0,29.93,SE,131,2.0,5.0,98,0.03,,,0.03,,2013-05-23 15:22:00,
2013-05-23 11:33:00,68.0,67.0,29.92,SSE,153,1.0,6.0,97,0.05,,,0.05,,2013-05-23 15:33:00,
2013-05-23 11:42:00,68.0,67.0,29.92,SSE,153,1.0,6.0,97,0.05,,,0.05,,2013-05-23 15:42:00,
2013-05-23 11:53:00,68.0,67.0,29.92,SE,125,3.0,5.0,97,0.06,,,0.06,,2013-05-23 15:53:00,
2013-05-23 12:03:00,69.0,68.0,29.92,SSE,149,3.0,9.0,97,0.06,,,0.06,,2013-05-23 16:03:00,
2013-05-23 12:12:00,69.0,68.0,29.92,SSE,149,3.0,9.0,97,0.06,,,0.06,,2013-05-23 16:12:00,
2013-05-23 12:23:00,70.0,69.0,29.92,SW,221,1.0,4.0,97,0.03,,,0.06,,2013-05-23 16:23:00,
2013-05-23 12:34:00,70.0,69.0,29.92,SSW,212,3.0,6.0,96,0.01,,,0.06,,2013-05-23 16:34:00,
2013-05-23 12:42:00,70.0,69.0,29.92,SSW,212,3.0,6.0,96,0.01,,,0.06,,2013-05-23 16:42:00,
2013-05-23 12:52:00,70.0,69.0,29.91,SSE,159,1.0,6.0,96,0.00,,,0.06,,2013-05-23 16:52:00,
2013-05-23 13:03:00,71.0,70.0,29.91,ESE,117,1.0,4.0,96,0.00,,,0.06,,2013-05-23 17:03:00,
2013-05-23 13:11:00,71.0,70.0,29.91,ESE,117,1.0,4.0,96,0.00,,,0.06,,2013-05-23 17:11:00,
2013-05-23 13:23:00,70.0,68.0,29.90,SE,134,2.0,10.0,95,0.00,,,0.06,,2013-05-23 17:23:00,
2013-05-23 13:33:00,69.0,68.0,29.91,SE,126,0.0,4.0,96,0.01,,,0.07,,2013-05-23 17:33:00,
2013-05-23 13:43:00,69.0,68.0,29.91,SE,126,0.0,4.0,96,0.01,,,0.07,,2013-05-23 17:43:00,
2013-05-23 13:53:00,68.0,67.0,29.91,SSE,155,1.0,5.0,96,0.01,,,0.07,,2013-05-23 17:53:00,
2013-05-23 14:01:00,68.0,67.0,29.91,SE,143,5.0,9.0,96,0.04,,,0.10,,2013-05-23 18:01:00,
2013-05-23 14:11:00,68.0,67.0,29.91,SE,143,5.0,9.0,96,0.04,,,0.10,,2013-05-23 18:11:00,
2013-05-23 14:22:00,68.0,67.0,29.91,SSW,196,2.0,8.0,97,0.06,,,0.12,,2013-05-23 18:22:00,
2013-05-23 14:32:00,67.0,66.0,29.90,SSE,163,1.0,6.0,97,0.09,,,0.16,,2013-05-23 18:32:00,
2013-05-23 14:42:00,67.0,66.0,29.90,SSE,163,1.0,6.0,97,0.09,,,0.16,,2013-05-23 18:42:00,
2013-05-23 14:52:00,67.0,66.0,29.91,SSW,201,3.0,8.0,98,0.18,,,0.25,,2013-05-23 18:52:00,
2013-05-23 15:01:00,67.0,66.0,29.89,SSE,158,3.0,8.0,98,0.34,,,0.44,,2013-05-23 19:01:00,
2013-05-23 15:11:00,67.0,66.0,29.89,SSE,158,3.0,8.0,98,0.34,,,0.44,,2013-05-23 19:11:00,
2013-05-23 15:21:00,66.0,65.0,29.90,SW,229,0.0,7.0,97,0.36,,,0.48,,2013-05-23 19:21:00,
2013-05-23 15:32:00,65.0,64.0,29.89,SE,146,1.0,3.0,97,0.41,,,0.58,,2013-05-23 19:32:00,
2013-05-23 15:42:00,65.0,64.0,29.89,SE,146,1.0,3.0,97,0.41,,,0.58,,2013-05-23 19:42:00,
2013-05-23 15:52:00,65.0,64.0,29.89,SSW,198,0.0,2.0,98,0.33,,,0.59,,2013-05-23 19:52:00,
2013-05-23 16:02:00,65.0,64.0,29.89,SSE,153,0.0,3.0,98,0.15,,,0.59,,2013-05-23 20:02:00,
2013-05-23 16:11:00,65.0,64.0,29.89,SSE,153,0.0,3.0,98,0.15,,,0.59,,2013-05-23 20:11:00,
2013-05-23 16:21:00,65.0,64.0,29.88,SSE,153,1.0,3.0,98,0.14,,,0.63,,2013-05-23 20:21:00,
2013-05-23 16:32:00,65.0,64.0,29.87,SE,144,1.0,3.0,98,0.09,,,0.67,,2013-05-23 20:32:00,
2013-05-23 16:42:00,65.0,64.0,29.87,SE,144,1.0,3.0,98,0.09,,,0.67,,2013-05-23 20:42:00,
2013-05-23 16:52:00,65.0,64.0,29.87,SE,144,1.0,3.0,98,0.09,,,0.67,,2013-05-23 20:52:00,
2013-05-23 17:01:00,65.0,64.0,29.88,SE,139,2.0,5.0,98,0.17,,,0.77,,2013-05-23 21:01:00,
2013-05-23 17:11:00,65.0,64.0,29.88,SE,139,2.0,5.0,98,0.17,,,0.77,,2013-05-23 21:11:00,
2013-05-23 17:22:00,65.0,64.0,29.88,South,173,4.0,8.0,98,0.20,,,0.84,,2013-05-23 21:22:00,
2013-05-23 17:32:00,65.0,64.0,29.88,ENE,75,4.0,8.0,98,0.27,,,0.94,,2013-05-23 21:32:00,
2013-05-23 17:43:00,65.0,64.0,29.88,ENE,75,4.0,8.0,98,0.27,,,0.94,,2013-05-23 21:43:00,
2013-05-23 17:53:00,65.0,64.0,29.87,SE,125,1.0,9.0,98,0.32,,,1.04,,2013-05-23 21:53:00,
2013-05-23 18:03:00,65.0,64.0,29.88,SSW,197,1.0,5.0,98,0.35,,,1.12,,2013-05-23 22:03:00,
2013-05-23 18:12:00,65.0,64.0,29.88,SSW,197,1.0,5.0,98,0.35,,,1.12,,2013-05-23 22:12:00,
2013-05-23 18:22:00,65.0,64.0,29.88,SE,137,3.0,7.0,98,0.35,,,1.19,,2013-05-23 22:22:00,
2013-05-23 18:33:00,65.0,64.0,29.88,South,173,1.0,8.0,98,0.29,,,1.25,,2013-05-23 22:33:00,
2013-05-23 18:42:00,65.0,64.0,29.88,South,173,1.0,8.0,98,0.29,,,1.25,,2013-05-23 22:42:00,
2013-05-23 18:52:00,65.0,64.0,29.89,SSE,149,3.0,9.0,98,0.23,,,1.27,,2013-05-23 22:52:00,
2013-05-23 19:02:00,65.0,64.0,29.88,ESE,102,2.0,7.0,98,0.20,,,1.32,,2013-05-23 23:02:00,
2013-05-23 19:11:00,65.0,64.0,29.88,ESE,102,2.0,7.0,98,0.20,,,1.32,,2013-05-23 23:11:00,
2013-05-23 19:21:00,65.0,64.0,29.88,SSW,205,2.0,7.0,98,0.13,,,1.32,,2013-05-23 23:21:00,
2013-05-23 19:32:00,65.0,64.0,29.87,SE,137,2.0,4.0,98,0.08,,,1.33,,2013-05-23 23:32:00,
2013-05-23 19:42:00,65.0,64.0,29.87,SE,137,2.0,4.0,98,0.08,,,1.33,,2013-05-23 23:42:00,
2013-05-23 19:52:00,65.0,64.0,29.87,SSE,148,3.0,5.0,98,0.13,,,1.40,,2013-05-23 23:52:00,
2013-05-23 20:01:00,65.0,65.0,29.86,SE,142,2.0,8.0,99,0.09,,,1.41,,2013-05-24 00:01:00,
2013-05-23 20:12:00,65.0,65.0,29.86,SE,142,2.0,8.0,99,0.09,,,1.41,,2013-05-24 00:12:00,
2013-05-23 20:21:00,64.0,64.0,29.87,ESE,122,1.0,4.0,99,0.10,,,1.42,,2013-05-24 00:21:00,
2013-05-23 20:32:00,65.0,65.0,29.87,SSE,158,2.0,5.0,99,0.13,,,1.46,,2013-05-24 00:32:00,
2013-05-23 20:42:00,65.0,65.0,29.87,SSE,158,2.0,5.0,99,0.13,,,1.46,,2013-05-24 00:42:00,
2013-05-23 20:52:00,65.0,65.0,29.86,SE,146,3.0,6.0,99,0.12,,,1.52,,2013-05-24 00:52:00,
2013-05-23 21:01:00,65.0,65.0,29.86,SSE,158,5.0,10.0,99,0.18,,,1.59,,2013-05-24 01:01:00,
2013-05-23 21:12:00,65.0,65.0,29.86,SSE,158,5.0,10.0,99,0.18,,,1.59,,2013-05-24 01:12:00,
2013-05-23 21:22:00,65.0,65.0,29.86,SE,133,2.0,9.0,99,0.25,,,1.67,,2013-05-24 01:22:00,
2013-05-23 21:32:00,64.0,64.0,29.85,SE,140,3.0,8.0,99,0.28,,,1.74,,2013-05-24 01:32:00,
2013-05-23 21:42:00,64.0,64.0,29.85,SE,140,3.0,8.0,99,0.28,,,1.74,,2013-05-24 01:42:00,
2013-05-23 21:52:00,64.0,64.0,29.85,South,183,3.0,11.0,99,0.28,,,1.80,,2013-05-24 01:52:00,
2013-05-23 22:02:00,64.0,64.0,29.85,SE,138,4.0,12.0,99,0.25,,,1.85,,2013-05-24 02:02:00,
2013-05-23 22:12:00,64.0,64.0,29.85,SE,138,4.0,12.0,99,0.25,,,1.85,,2013-05-24 02:12:00,
2013-05-23 22:22:00,64.0,64.0,29.84,SSE,150,4.0,9.0,99,0.20,,,1.88,,2013-05-24 02:22:00,
2013-05-23 22:32:00,64.0,64.0,29.83,WSW,243,5.0,14.0,99,0.14,,,1.88,,2013-05-24 02:32:00,
2013-05-23 22:42:00,64.0,64.0,29.83,WSW,243,5.0,14.0,99,0.14,,,1.88,,2013-05-24 02:42:00,
2013-05-23 22:52:00,64.0,64.0,29.83,SE,142,2.0,7.0,99,0.08,,,1.88,,2013-05-24 02:52:00,
2013-05-23 23:02:00,64.0,64.0,29.83,SSE,162,4.0,9.0,99,0.04,,,1.89,,2013-05-24 03:02:00,
2013-05-23 23:11:00,64.0,64.0,29.83,SSW,212,4.0,8.0,99,0.01,,,1.89,,2013-05-24 03:11:00,
2013-05-23 23:22:00,64.0,64.0,29.83,SSW,212,4.0,8.0,99,0.01,,,1.89,,2013-05-24 03:22:00,
2013-05-23 23:33:00,64.0,64.0,29.82,SSW,204,5.0,12.0,99,0.04,,,1.92,,2013-05-24 03:33:00,
2013-05-23 23:42:00,64.0,64.0,29.82,SSW,204,5.0,12.0,99,0.04,,,1.92,,2013-05-24 03:42:00,
2013-05-23 23:53:00,64.0,64.0,29.81,SSW,209,2.0,10.0,99,0.04,,,1.92,,2013-05-24 03:53:00,